This is the latest recevied weather packets stored in our database for station/object EA5EN-10. If no packets are shown the sender has not sent any weather packets the latest 1 day(s).
| Time | Temp. | Humidity | Pressure | Rain* | Wind** | Luminosity | Snow |
|---|---|---|---|---|---|---|---|
| 1778099657 | 23.89° C | 56% | 1025.2 hPa | - | - | - | - |
| 1778097366 | 23.89° C | 56% | 1025 hPa | - | - | - | - |
| 1778095251 | 24.44° C | 55% | 1024.3 hPa | - | - | - | - |
| 1778094543 | 24.44° C | 55% | 1024.3 hPa | - | - | - | - |
| 1778081845 | 23.89° C | 56% | 1023 hPa | - | - | - | - |
| 1778079371 | 23.89° C | 56% | 1023.1 hPa | - | - | - | - |
| 1778077263 | 23.33° C | 56% | 1022.9 hPa | - | - | - | - |
| 1778069483 | 22.22° C | 60% | 1024.3 hPa | - | - | - | - |
| 1778063504 | 21.67° C | 61% | 1025 hPa | - | - | - | - |
| 1778057143 | 21.11° C | 61% | 1025.2 hPa | - | - | - | - |
| 1778051858 | 21.67° C | 60% | 1025.2 hPa | - | - | - | - |
| 1778048544 | 21.67° C | 60% | 1024.7 hPa | - | - | - | - |
| 1778046568 | 21.67° C | 60% | 1024.4 hPa | - | - | - | - |
| 1778045679 | 22.22° C | 60% | 1024.3 hPa | - | - | - | - |
| 1778044796 | 22.22° C | 60% | 1024.1 hPa | - | - | - | - |
| 1778043387 | 22.22° C | 60% | 1024 hPa | - | - | - | - |
| 1778042326 | 22.22° C | 60% | 1023.9 hPa | - | - | - | - |
| 1778041619 | 22.22° C | 60% | 1023.8 hPa | - | - | - | - |
| 1778041441 | 22.22° C | 60% | 1023.8 hPa | - | - | - | - |
| 1778038629 | 22.78° C | 59% | 1024 hPa | - | - | - | - |
| 1778037212 | 22.78° C | 59% | 1024.1 hPa | - | - | - | - |
| 1778035979 | 22.78° C | 59% | 1024 hPa | - | - | - | - |
| 1778035101 | 22.78° C | 59% | 1023.9 hPa | - | - | - | - |
| 1778034219 | 23.33° C | 59% | 1024 hPa | - | - | - | - |
| 1778031745 | 23.33° C | 59% | 1024.3 hPa | - | - | - | - |
* Rain since midnight (hover to see other rain measurements)
** Current wind speed in m/s (hover to see current wind gust speed)